Location: Newark
(35.7667°N, 5.8000°E)
Time: 05:47:29
(UTC+00:00)

Hubble Space Telescope - Visible Passes

Search period start: 17 November 2019 00:00
Search period end: 27 November 2019 00:00
Orbit: 536 x 540 km, 28.5° (Epoch: 16 November)

Date Brightness Start Highest point End Pass type
(mag) Time Alt. Az. Time Alt. Az. Time Alt. Az.
17 Nov 3.0 18:26:57 10° SSW 18:28:34 15° S 18:28:34 15° S visible
18 Nov 2.7 18:15:55 10° SSW 18:18:38 18° SSE 18:18:38 18° SSE visible
19 Nov 2.5 18:05:00 10° SW 18:08:08 21° SSE 18:08:41 20° SSE visible
20 Nov 2.4 17:54:09 10° SW 17:57:28 23° S 17:58:42 20° SE visible
21 Nov 2.3 17:43:22 10° SW 17:46:48 26° S 17:48:44 18° SE visible
21 Nov 4.0 19:23:58 10° WSW 19:24:04 10° WSW 19:24:04 10° WSW visible
22 Nov 2.3 17:32:37 10° SW 17:36:08 27° S 17:38:45 15° ESE visible
22 Nov 3.7 19:13:23 10° WSW 19:14:06 14° WSW 19:14:06 14° WSW visible
23 Nov 2.3 17:21:54 10° WSW 17:25:28 29° S 17:28:49 11° ESE visible
23 Nov 3.4 19:02:49 10° WSW 19:04:09 17° SW 19:04:09 17° SW visible
24 Nov 2.3 17:11:13 10° WSW 17:14:49 29° S 17:18:25 10° ESE visible
24 Nov 3.1 18:52:16 10° WSW 18:54:15 19° SW 18:54:15 19° SW visible
25 Nov 2.4 17:00:34 10° WSW 17:04:10 29° S 17:07:46 10° ESE visible
25 Nov 2.9 18:41:48 10° WSW 18:44:24 20° SSW 18:44:24 20° SSW visible
26 Nov 2.5 16:49:56 10° WSW 16:53:30 29° S 16:57:05 10° ESE visible
26 Nov 3.0 18:31:22 10° WSW 18:34:11 18° SSW 18:34:39 17° S visible
